Regional Weather Roundup
Issued by NWS

Home | Current Version | Previous Version | Text Only | Print | Product List | Glossary Off
Versions: 1 2 3 4 5 6 7 8 9 10 11 12 13 14 15 16 17 18 19 20 21 22 23 24 25 26 27 28 29 30 31 32 33 34 35 36 37 38 39 40 41 42 43 44 45 46 47 48 49 50

000
ASUS43 KMKX 280759
RWRWI

WISCONSIN REGIONAL WEATHER ROUNDUP
NATIONAL WEATHER SERVICE MILWAUKEE/SULLIVAN WI
200 AM CST SAT FEB 28 2015

NOTE: "FAIR" INDICATES FEW OR NO CLOUDS BELOW 12,000 FEET WITH NO
SIGNIFICANT WEATHER AND/OR OBSTRUCTIONS TO VISIBILITY.

WIZ001-002-006>008-014>016-023>028-280900-
NORTHWEST WISCONSIN

CITY           SKY/WX    TMP DP  RH WIND       PRES   REMARKS
SUPERIOR ARPT  CLEAR      3  -4  70 SW6       30.49R WCI  -8
ASHLAND        CLEAR      3  -6  66 SW8       30.49R WCI -10
HAYWARD        CLEAR     -9 -16  71 CALM      30.48R
SIREN          CLEAR      1  -4  77 S5        30.50S WCI  -8
CUMBERLAND     CLEAR     -8 -11  84 S5        30.49S WCI -19
RICE LAKE      CLEAR     -4  -8  81 CALM      30.52S
CHETEK         CLEAR     -6 -10  83 CALM      30.53R
LADYSMITH      CLEAR     -3  -8  79 CALM      30.52S
EAU CLAIRE     CLEAR     -3  -8  79 S6        30.55S WCI -15
MENOMONIE      FAIR       0  -5  79 SE3       30.55S
NEW RICHMOND   CLEAR     -1  -5  83 S6        30.52S WCI -13
OSCEOLA        CLEAR     -1  -5  82 S7        30.55S WCI -14
$$

WIZ003>005-009-010-017-018-280900-
NORTH CENTRAL WISCONSIN

CITY           SKY/WX    TMP DP  RH WIND       PRES   REMARKS
MANITOWISH WTR CLEAR     -9 -14  79 CALM      30.43R
ARBOR VITAE    CLEAR     -6 -12  76 CALM      30.44R
WOODRUFF       CLEAR     -6 -12  76 CALM      30.44R
RHINELANDER    CLEAR     -5  -9  83 W5        30.45R WCI -16
EAGLE RIVER    CLEAR     -5 -10  79 CALM      30.43R
LAND O LAKES   CLEAR    -16 -21  78 CALM      30.42S
PHILLIPS       CLEAR     -8 -11  84 CALM      30.46S
TOMAHAWK       CLEAR    -13 -17  79 CALM      30.48R
MEDFORD        PTCLDY    -2  -7  81 SW3       30.48S
MERRILL        CLEAR    -15 -20  77 CALM      30.50R
$$

WIZ029-030-035-036-043>047-280900-
CENTRAL WISCONSIN

CITY           SKY/WX    TMP DP  RH WIND       PRES   REMARKS
WAUSAU         CLEAR      0  -7  72 CALM      30.51R
MOSINEE        CLEAR     -2  -8  78 SW6       30.53R WCI -14
MARSHFIELD     PTCLDY    -3  -9  75 SW6       30.53R WCI -15
STEVENS POINT  CLEAR      1  -8  66 SW6       30.55S WCI -11
WAUPACA        CLEAR      3  -7  63 SW6       30.58S WCI  -8
WAUTOMA        NOT AVBL
WISC RAPIDS    CLEAR     -2 -10  69 SW7       30.58R WCI -15
CAMP DOUGLAS   NOT AVBL
$$

WIZ011>013-019>022-031-037>040-048>050-280900-
NORTHEAST WISCONSIN

CITY           SKY/WX    TMP DP  RH WIND       PRES   REMARKS
ANTIGO         CLEAR     -5  -9  83 W5        30.48R WCI -16
SHAWANO        CLEAR      5  -5  61 CALM      30.56S
OCONTO         CLEAR      4  -6  64 SW6       30.57R WCI  -7
STURGEON BAY   CLEAR      7  -6  56 SW7       30.58R WCI  -5
GREEN BAY      CLEAR      4  -4  69 SW6       30.59R WCI  -7
MANITOWOC      NOT AVBL
APPLETON       CLEAR      3  -6  66 SW8       30.57R WCI -10
CLINTONVILLE   CLEAR      5  -6  61 SW5       30.56S WCI  -4
OSHKOSH        CLEAR      3  -6  66 W3        30.59R
$$

WIZ032>034-041-042-053>061-280900-
SOUTHWEST WISCONSIN

CITY           SKY/WX    TMP DP  RH WIND       PRES   REMARKS
LA CROSSE      CLEAR     -1  -7  75 SE3       30.62R
SPARTA         CLEAR    -11 -16  79 CALM      30.60S
VIROQUA        CLEAR     -4  -8  81 S8        30.54S WCI -19
BOSCOBEL       PTCLDY   -10 -16  74 CALM      30.65S
PRAIRIE DU CHI PTCLDY   -11 -16  76 CALM      30.64F
PLATTEVILLE    MOCLDY    -3  -8  79 S3        30.61S
$$

WIZ056-057-062-063-064-067-068-280900-
SOUTH CENTRAL WISCONSIN

CITY           SKY/WX    TMP DP  RH WIND       PRES   REMARKS
REEDSBURG      CLEAR      0  -7  71 CALM      30.60S
BARABOO/DELLS  CLEAR      0  -8  69 CALM      30.59S
LONE ROCK      NOT AVBL
MINERAL POINT  PTCLDY     1  -6  71 CALM      30.59S
MADISON        CLEAR     -2  -9  72 CALM      30.61S
MIDDLETON      CLEAR      0  -9  66 CALM      30.61S
WATERTOWN      CLEAR     -1  -8  74 CALM      30.62R
MONROE         MOCLDY     0  -6  78 SW7       30.59S WCI -13
JANESVILLE     PTCLDY     0  -8  71 CALM      30.63F
$$

WIZ051-052-058>065-066-070>072-280900-
SOUTHEAST WISCONSIN

CITY           SKY/WX    TMP DP  RH WIND       PRES   REMARKS
MILWAUKEE      CLEAR      3  -7  63 W7        30.64S WCI  -9
WAUKESHA       CLEAR      1  -8  66 SW6       30.63R WCI -10
MILWAUKEE/TIMM CLEAR      3  -6  66 SW5       30.64R WCI  -6
RACINE         PTCLDY     0  -9  65 SW6       30.66S WCI -12
BURLINGTON     PTCLDY    -6 -11  80 SW5       30.64S WCI -17
KENOSHA        PTCLDY    -7 -11  83 W6        30.65S WCI -20
FOND DU LAC    CLEAR      1  -7  68 SW5       30.60S WCI  -9
SHEBOYGAN      CLEAR      2  -7  66 SW8       30.61R WCI -12
WEST BEND      CLEAR      3  -6  66 W7        30.60S WCI  -9
JUNEAU         CLEAR     -1  -8  74 S6        30.61S WCI -13
$$

LSZ147-162-280900-
LAKE SUPERIOR

STATION/POSITION TIME  TEMP    WIND        PRES    WAVE
                       AIR SEA DIR/SP/G            HT/PER
                 (UTC) (F)     (DEG/KT/KT) (MB)    (FT/S)
DEVILS ISLAND    0700   11     230/ 16/ 20 1032.7R
PORT WING        0740    8     190/  8/ 10 1032.2R
SAXON HARBOR     0700    8     180/  4/  8 1032.5R
$$

LMZ867-665-643>646-280900-
LAKE MICHIGAN

STATION/POSITION TIME  TEMP    WIND        PRES    WAVE
                       AIR SEA DIR/SP/G            HT/PER
                 (UTC) (F)     (DEG/KT/KT) (MB)    (FT/S)
NORTHPORT PIER   0700    9     230/  4/  9 1034.2
SISTER BAY       0643    9     250/ 11/ 13   N/A
KEWAUNEE LAKESHO 0700    7     250/  8/ 12 1034.4R
SHEBOYGAN LAKESH 0700    8     260/ 12/ 13 1038.0R
PORT WASHINGTON  0700    7     270/  7/ 12 1037.6
MILWAUKEE LAKESH 0700    8     240/ 11/ 14   N/A
KENOSHA   LAKESH 0700    3     240/  5/  9 1037.9R
$$

TC  - TEMPERATURE IN CELSIUS
VSB - VISIBILITY IN STATUTE MILES
WCI - WIND CHILL INDEX
HX  - HEAT INDEX



USA.gov is the U.S. government's official web portal to all federal, state and local government web resources and services.